Weather in Nelkan

Russia / Khabarovsk Krai     57°38′55″N   136°09′48″E
temp.,
°C
wind,
m/s
gust,
m/s
humid.,
%
clouds,
%
prec.,
mm/h
press.,
hPa
HPBL,
m
27 february, sat
sat2701:00−32sw01980 0.0 103419
04:00−33ese11997 0.0 103319
07:00−34ese019923 0.0 103219
10:00−29ene119630 0.0 1030111
13:00−22ene119175 0.0 1026279
16:00−21ene239285 0.0 1022306
19:00−24ne1296100 0.0 102022
22:00−24ne1296100 0.0 101821
28 february, sun
sun2801:00−23ne1295100 0.0 101692
04:00−21ene2699100 1.0 1015250
07:00−21ne2499100 1.2 1016226
10:00−22n2398100 1.9 1017198
13:00−18nw3590100 0.3 1018855
16:00−19nw5890100 0.5 1019775
19:00−22nw41092100 0.1 1023762
22:00−24nw41092100 0.2 1025759
1 march, mon
mon101:00−26wnw41089100 0.1 1026739
04:00−27wnw31092100 0.1 1028656
07:00−29w2994100 0.0 1028547
10:00−27wnw4889100 0.0 1028962
13:00−25nw4785100 0.0 10261103
16:00−25nw4884100 0.1 10251167
19:00−26wnw2894100 0.1 1026662
22:00−27w2996100 0.1 1026822
2 march, tue
tue201:00−28w3995100 0.1 1025629
04:00−28w3995100 0.1 1025564
07:00−29w3995100 0.1 1026626
10:00−28wnw4890100 0.2 1026957
13:00−26nw4787100 0.1 10251165
16:00−25wnw4786100 0.2 10251206
19:00−27wnw2695100 0.1 1025209
22:00−29w2296100 0.1 102627
3 march, wed
wed301:00−30wsw1297100 0.0 102619
04:00−31sw1297100 0.1 102619
07:00−33sw129899 0.0 102619
10:00−30sw129884 0.0 1025156
13:00−25sw128892 0.0 1022579
16:00−24wsw128396 0.0 1019840
19:00−29sw1194100 0.0 101919
22:00−32wsw119796 0.0 101919